{"data":{"norad_id":69859,"intl_designator":"2026-155M","name":"QIANFAN-230","alt_names":[],"object_type":"PAYLOAD","status":"ACTIVE","operator":null,"country":"PRC","launch_date":"2026-07-05","launch_site_code":"WSC","launch_vehicle":null,"mission":null,"orbit_class":"UNKNOWN","rcs_meters":null,"size_class":null,"mass_kg":null,"dimensions":null,"purposes":[],"wikipedia_slug":null,"has_3d_model":false,"image_url":null,"decayed_at":null,"tle_current":{"epoch":"2026-09-19T21:34:39.072576Z","epoch_age_seconds":73590,"freshness":"FRESH","line1":"1 69859U 26155M   26262.89906334  .00000048  00000+0  56058-4 0  9995","line2":"2 69859  89.0088  53.8021 0034644  14.2681 345.9440 13.51033410 10634","mean_motion":13.5103341,"eccentricity":0.0034644,"inclination_deg":89.0088,"raan_deg":53.8021,"arg_perigee_deg":14.2681,"mean_anomaly_deg":345.944,"bstar":5.6058e-5,"rev_number":1063,"period_min":106.58507697452,"perigee_km":1042.6608305047,"apogee_km":1094.2568036019,"semimajor_km":7446.5958170533,"source":"CELESTRAK","updated_at":"2026-09-20T09:00:25.159246Z"}}}